Location: *
(46.3500°N, 10.9000°E)
Time: 02:07:08
(UTC+00:00)

Tiros 1 despin weight - Visible Passes

Search period start: 21 April 2021 00:00
Search period end: 01 May 2021 00:00
Orbit: 593 x 641 km, 48.2° (Epoch: 20 April)

Date Brightness Start Highest point End Pass type
(mag) Time Alt. Az. Time Alt. Az. Time Alt. Az.
22 Apr ? 02:39:45 11° S 02:42:36 18° SE 02:45:44 10° E visible
23 Apr ? 02:55:22 14° SSW 02:58:37 31° SE 03:02:38 10° E visible
24 Apr ? 01:33:53 13° SE 01:33:57 13° SE 01:36:02 10° ESE visible
24 Apr ? 03:10:55 14° SW 03:14:45 49° SSE 03:19:10 10° ENE visible
25 Apr ? 01:49:21 22° SSE 01:49:53 23° SE 01:53:31 10° E visible
25 Apr ? 03:26:24 10° WSW 03:30:59 73° SSE 03:35:33 10° ENE visible
26 Apr ? 02:04:47 32° S 02:05:58 37° SSE 02:10:13 10° E visible
27 Apr ? 00:43:08 13° ESE 00:43:08 13° ESE 00:44:08 10° E visible
27 Apr ? 02:20:09 32° SW 02:22:08 59° SSE 02:26:40 10° ENE visible
28 Apr ? 00:58:27 25° ESE 00:58:27 25° ESE 01:01:10 10° E visible
28 Apr ? 02:35:29 23° WSW 02:38:25 83° SSE 02:43:01 10° ENE visible
29 Apr ? 01:13:45 44° SE 01:13:45 44° SE 01:17:44 10° ENE visible
29 Apr ? 02:50:46 14° W 02:54:46 78° N 02:59:23 10° ENE visible
30 Apr ? 01:29:00 62° SSW 01:29:32 69° SSE 01:34:08 10° ENE visible
30 Apr ? 03:06:32 10° W 03:11:11 70° N 03:15:45 10° E visible
